Hourly Weather Kozlowo

Today, 31 October, Saturday

Time Temperature Precipitation Wind Pressure Humidity
00:00 +9°C° 0 mm 1 mps 752 mmHg 95%
01:00 +9°C° 0 mm 1 mps 752 mmHg 94%
02:00 +9°C° 0 mm 1 mps 753 mmHg 94%
03:00 +7°C° 0 mm 2 mps 753 mmHg 94%
04:00 +7°C° 0 mm 2 mps 753 mmHg 94%
05:00 +7°C° 0 mm 2 mps 754 mmHg 94%
06:00 +6°C° 0 mm 2 mps 754 mmHg 94%
07:00 +6°C° 0 mm 2 mps 754 mmHg 94%
08:00 +7°C° 0 mm 2 mps 755 mmHg 89%
09:00 +8°C° 0 mm 2 mps 755 mmHg 84%
10:00 +10°C° 0 mm 1 mps 755 mmHg 79%
11:00 +10°C° 0 mm 2 mps 755 mmHg 75%
12:00 +12°C° 0 mm 2 mps 756 mmHg 71%
13:00 +13°C° 0 mm 2 mps 756 mmHg 67%
14:00 +12°C° 0 mm 2 mps 756 mmHg 70%
15:00 +10°C° 0 mm 2 mps 755 mmHg 73%
16:00 +10°C° 0 mm 2 mps 755 mmHg 77%
17:00 +9°C° 0 mm 2 mps 755 mmHg 79%
18:00 +8°C° 0 mm 2 mps 755 mmHg 82%
19:00 +8°C° 0 mm 3 mps 756 mmHg 84%
20:00 +7°C° 0 mm 3 mps 755 mmHg 85%
21:00 +7°C° 0 mm 3 mps 755 mmHg 85%
22:00 +7°C° 0 mm 3 mps 755 mmHg 86%
23:00 +5°C° 0 mm 3 mps 755 mmHg 86%

Tomorrow, 1 November, Sunday

Time Temperature Precipitation Wind Pressure Humidity
00:00 +5°C° 0 mm 3 mps 755 mmHg 86%
01:00 +5°C° 0 mm 3 mps 754 mmHg 85%
02:00 +5°C° 0 mm 4 mps 754 mmHg 86%
03:00 +5°C° 0 mm 4 mps 753 mmHg 86%
04:00 +5°C° 0 mm 4 mps 753 mmHg 86%
05:00 +5°C° 0 mm 4 mps 753 mmHg 84%
06:00 +5°C° 0 mm 4 mps 752 mmHg 83%
07:00 +5°C° 0 mm 5 mps 752 mmHg 81%
08:00 +6°C° 0 mm 4 mps 752 mmHg 79%
09:00 +7°C° 0 mm 4 mps 751 mmHg 78%
10:00 +8°C° 0 mm 4 mps 751 mmHg 77%
11:00 +10°C° 0 mm 4 mps 751 mmHg 78%
12:00 +11°C° 0 mm 4 mps 750 mmHg 79%
13:00 +12°C° 0 mm 4 mps 750 mmHg 79%
14:00 +11°C° 0.6 mm 4 mps 749 mmHg 84%
15:00 +11°C° 0.6 mm 4 mps 749 mmHg 88%
16:00 +11°C° 0.6 mm 4 mps 748 mmHg 93%
17:00 +11°C° 0.9 mm 4 mps 748 mmHg 94%
18:00 +11°C° 0.9 mm 4 mps 748 mmHg 95%
19:00 +11°C° 0.9 mm 4 mps 748 mmHg 96%
20:00 +11°C° 0.2 mm 4 mps 747 mmHg 95%
21:00 +11°C° 0.2 mm 4 mps 747 mmHg 95%
22:00 +11°C° 0.2 mm 4 mps 747 mmHg 94%
23:00 +10°C° 0.5 mm 5 mps 747 mmHg 94%

Day after tomorrow, 2 November, Monday

Time Temperature Precipitation Wind Pressure Humidity
00:00 +10°C° 0.5 mm 5 mps 746 mmHg 94%
01:00 +10°C° 0.5 mm 5 mps 746 mmHg 94%
02:00 +12°C° 0 mm 5 mps 746 mmHg 93%
03:00 +12°C° 0 mm 5 mps 747 mmHg 93%
04:00 +13°C° 0 mm 5 mps 747 mmHg 92%
05:00 +12°C° 0 mm 4 mps 747 mmHg 92%
06:00 +12°C° 0 mm 4 mps 747 mmHg 92%
07:00 +11°C° 0 mm 4 mps 748 mmHg 91%
08:00 +11°C° 0 mm 4 mps 748 mmHg 89%
09:00 +12°C° 0 mm 4 mps 748 mmHg 87%
10:00 +12°C° 0 mm 3 mps 748 mmHg 84%
11:00 +12°C° 0.1 mm 3 mps 748 mmHg 86%
12:00 +12°C° 0.1 mm 3 mps 749 mmHg 88%
13:00 +11°C° 0.1 mm 3 mps 749 mmHg 90%
14:00 +12°C° 0 mm 3 mps 748 mmHg 92%
15:00 +12°C° 0 mm 3 mps 748 mmHg 94%
16:00 +13°C° 0 mm 4 mps 748 mmHg 95%
17:00 +13°C° 0 mm 4 mps 749 mmHg 95%
18:00 +13°C° 0 mm 4 mps 749 mmHg 94%
19:00 +14°C° 0 mm 4 mps 749 mmHg 93%
20:00 +14°C° 0 mm 4 mps 749 mmHg 93%
21:00 +14°C° 0 mm 4 mps 749 mmHg 92%
22:00 +14°C° 0 mm 4 mps 749 mmHg 91%
23:00 +14°C° 0 mm 4 mps 749 mmHg 91%

3 November, Tuesday

Time Temperature Precipitation Wind Pressure Humidity
00:00 +14°C° 0 mm 4 mps 749 mmHg 90%
01:00 +14°C° 0 mm 4 mps 749 mmHg 90%
02:00 +14°C° 0 mm 4 mps 749 mmHg 89%
03:00 +14°C° 0 mm 4 mps 749 mmHg 89%
04:00 +14°C° 0 mm 4 mps 750 mmHg 89%
05:00 +14°C° 0 mm 5 mps 750 mmHg 87%
06:00 +14°C° 0 mm 5 mps 751 mmHg 86%
07:00 +14°C° 0 mm 5 mps 751 mmHg 85%
08:00 +13°C° 0 mm 5 mps 752 mmHg 79%
09:00 +13°C° 0 mm 5 mps 752 mmHg 74%
10:00 +11°C° 0 mm 6 mps 753 mmHg 68%
11:00 +11°C° 0 mm 6 mps 754 mmHg 64%
12:00 +13°C° 0 mm 6 mps 754 mmHg 61%
13:00 +12°C° 0 mm 7 mps 754 mmHg 57%
14:00 +11°C° 0 mm 6 mps 755 mmHg 61%
15:00 +10°C° 0 mm 5 mps 755 mmHg 64%
16:00 +11°C° 0 mm 4 mps 755 mmHg 68%
17:00 +10°C° 0 mm 4 mps 756 mmHg 70%
18:00 +8°C° 0 mm 4 mps 756 mmHg 73%
19:00 +9°C° 0 mm 3 mps 757 mmHg 75%
20:00 +8°C° 0 mm 3 mps 757 mmHg 74%
21:00 +8°C° 0 mm 3 mps 757 mmHg 74%
22:00 +8°C° 0 mm 3 mps 757 mmHg 74%
23:00 +7°C° 0 mm 3 mps 758 mmHg 75%

4 November, Wednesday

Time Temperature Precipitation Wind Pressure Humidity
00:00 +7°C° 0 mm 3 mps 758 mmHg 77%
01:00 +7°C° 0 mm 3 mps 758 mmHg 78%
02:00 +7°C° 0 mm 3 mps 758 mmHg 80%
03:00 +5°C° 0 mm 3 mps 758 mmHg 82%
04:00 +5°C° 0 mm 3 mps 758 mmHg 83%
05:00 +4°C° 0 mm 3 mps 759 mmHg 85%
06:00 +4°C° 0 mm 3 mps 759 mmHg 86%
07:00 +4°C° 0 mm 3 mps 759 mmHg 88%
08:00 +5°C° 0 mm 3 mps 759 mmHg 83%
09:00 +5°C° 0 mm 4 mps 759 mmHg 78%
10:00 +6°C° 0 mm 4 mps 760 mmHg 73%
11:00 +7°C° 0 mm 4 mps 760 mmHg 69%
12:00 +8°C° 0 mm 4 mps 760 mmHg 66%
13:00 +9°C° 0 mm 3 mps 760 mmHg 63%
14:00 +8°C° 0 mm 3 mps 760 mmHg 67%
15:00 +8°C° 0 mm 2 mps 760 mmHg 70%
16:00 +7°C° 0 mm 2 mps 760 mmHg 73%
17:00 +7°C° 0 mm 2 mps 760 mmHg 75%
18:00 +7°C° 0 mm 1 mps 761 mmHg 77%
19:00 +7°C° 0 mm 1 mps 761 mmHg 80%
20:00 +7°C° 0 mm 1 mps 761 mmHg 80%
21:00 +6°C° 0 mm 1 mps 761 mmHg 81%
22:00 +6°C° 0 mm 1 mps 761 mmHg 82%
23:00 +6°C° 0 mm 1 mps 761 mmHg 83%

5 November, Thursday

Time Temperature Precipitation Wind Pressure Humidity
00:00 +6°C° 0 mm 1 mps 761 mmHg 84%
01:00 +6°C° 0 mm 1 mps 762 mmHg 85%
02:00 +5°C° 0 mm 1 mps 762 mmHg 86%
03:00 +5°C° 0 mm 1 mps 762 mmHg 87%
04:00 +5°C° 0 mm 1 mps 762 mmHg 89%
05:00 +5°C° 0 mm 1 mps 762 mmHg 90%
06:00 +4°C° 0 mm 1 mps 762 mmHg 91%
07:00 +3°C° 0 mm 2 mps 762 mmHg 92%
08:00 +4°C° 0 mm 2 mps 763 mmHg 88%
09:00 +5°C° 0 mm 2 mps 763 mmHg 84%
10:00 +5°C° 0 mm 3 mps 763 mmHg 80%
11:00 +7°C° 0 mm 3 mps 763 mmHg 75%
12:00 +8°C° 0 mm 3 mps 763 mmHg 70%
13:00 +8°C° 0 mm 3 mps 764 mmHg 66%
14:00 +8°C° 0 mm 2 mps 764 mmHg 69%
15:00 +7°C° 0 mm 2 mps 763 mmHg 72%
16:00 +6°C° 0 mm 2 mps 763 mmHg 75%
17:00 +6°C° 0 mm 2 mps 764 mmHg 78%
18:00 +5°C° 0 mm 2 mps 764 mmHg 81%
19:00 +5°C° 0 mm 2 mps 764 mmHg 84%
20:00 +4°C° 0 mm 2 mps 764 mmHg 86%
21:00 +4°C° 0 mm 2 mps 765 mmHg 88%
22:00 +4°C° 0 mm 2 mps 765 mmHg 89%
23:00 +4°C° 0 mm 2 mps 765 mmHg 91%
Show more